Location: Wald
(31.7579°N, 86.6655°W)
Time: 00:44:25
(UTC+00:00)

Daily predictions for brighter satellites

Satellite Brightness Start Highest point End
(mag) Time Altitude Azimuth Time Altitude Azimuth Time Altitude Azimuth
Cosmos 2360 Rocket 4.1 01:12:05 10° SW 01:17:13 36° WNW 01:22:23 10° N
Cosmos 2237 Rocket 3.4 01:15:46 10° SSE 01:19:59 22° E 01:24:12 10° NE
Delta 2 Rocket 3.1 01:18:43 10° WNW 01:22:36 67° SSW 01:26:06 10° ESE
Cosmos 2322 4.3 01:17:31 10° SSW 01:23:10 65° WNW 01:28:52 10° NNE
USA 234 4.0 01:16:57 10° SSE 01:23:15 49° SW 01:29:34 10° NW
Cosmos 1844 4.1 01:18:53 10° N 01:24:23 47° ENE 01:29:47 10° SE
NOSS 3-3 (A) 4.4 01:18:55 10° SW 01:24:30 64° WNW 01:30:41 10° NNE
NOSS 3-3 (C) 4.4 01:18:59 10° SW 01:24:35 65° WNW 01:30:47 10° NNE
Gbstr 26 Del rocket 3.0 01:21:25 10° SSW 01:25:23 44° SE 01:28:57 10° ENE
COSMOS 2428 2.7 01:22:59 10° SSW 01:28:38 80° ESE 01:34:19 10° NNE
ATLAS CENTAUR R/B 2.7 01:26:29 10° N 01:29:18 21° NE 01:32:08 10° ESE
Cosmos 1953 Rocket 4.3 01:25:30 10° SSE 01:29:19 32° E 01:33:09 10° NNE
Cosmos 1328 3.9 01:26:15 10° S 01:30:07 53° E 01:33:59 10° NNE
Cosmos 1709 Rocket 4.4 01:26:41 10° SSE 01:32:36 45° E 01:38:36 10° NNE
ATLAS CENTAUR R/B 3.4 01:30:46 10° WNW 01:33:00 24° SW 01:36:54 10° S
Resurs 01 Rocket 3.3 01:31:25 10° ESE 01:34:25 18° ENE 01:37:26 10° NNE
Nadezhda 1 Rocket 4.1 01:31:58 10° N 01:38:20 68° E 01:44:35 10° SSE
Cosmos 1825 Rocket 3.5 01:35:01 10° S 01:39:25 72° E 01:43:52 10° N
SJ-6B 2.9 01:36:32 10° SSE 01:40:31 72° ENE 01:44:36 10° N
Hubble Space Telescope 1.0 01:40:42 10° WSW 01:44:43 54° S 01:48:07 14° ESE
H-2A R/B 3.1 01:39:35 10° S 01:44:50 49° W 01:50:05 10° NNW
Milstar 3 4.3 01:36:18 10° W 01:45:44 71° S 02:03:26 12° ESE
BREEZE-M DEB (TANK) 4.0 01:33:40 10° SW 01:46:52 79° NW 01:50:11 10° NE
Cosmos 1844 Rocket 2.7 01:41:41 10° NNW 01:47:16 85° WSW 01:52:51 10° SSE
GPS 2-04 Rocket1 4.2 01:45:31 10° S 01:47:10 14° SSE 01:47:10 14° SSE
IUS-9 SRM-1 3.2 01:45:01 10° WSW 01:47:38 17° SSW 01:48:46 12° S
Resurs 1-3 4.1 01:45:15 12° SE 01:48:56 41° ENE 01:53:03 10° N
SEDSat Delta rocket 3.8 01:44:07 10° SW 01:49:11 52° SSE 01:55:01 10° E
Cosmos-2242 3.2 01:48:21 10° N 01:52:39 54° E 01:56:25 13° SSE
Cosmos 2333 Rocket 3.3 01:47:34 10° SW 01:53:03 49° WNW 01:58:36 10° N
USA 186 3.2 01:51:40 10° SSW 01:54:41 36° W 01:57:36 10° NNW
Cosmos 1538 Rocket 4.4 01:49:57 10° SSW 01:55:17 72° WNW 02:00:36 10° NNE
NOSS 0 Rocket 3.9 01:50:22 10° S 01:56:26 69° ESE 02:02:33 10° NNE
SPOT 3 Rocket 3.8 01:51:51 12° SSE 01:56:28 55° ENE 02:01:34 10° N
OAO 2 Rocket 3.4 01:52:07 10° WNW 01:57:21 87° SSW 02:01:23 18° ESE
Cosmos 1812 Rocket 4.5 01:53:34 10° NNW 01:57:44 48° W 02:01:54 10° SSW
Cosmos 1455 2.7 01:55:22 10° NNW 01:59:10 60° W 02:02:58 10° S
Cosmos 2084 3.7 01:59:27 10° NNW 02:03:51 59° ENE 02:06:28 23° SE
Cosmos 2278 Rocket 3.5 01:59:43 10° N 02:04:15 24° ENE 02:07:03 17° E
SL-16 R/B 3.4 02:09:56 20° ESE 02:10:30 20° E 02:14:29 10° NE
Alouette 2 Rocket 4.5 02:09:30 10° N 02:14:36 78° E 02:22:01 12° SSE
Cosmos 2112 Rocket 4.2 02:19:12 14° S 02:23:41 52° ESE 02:28:53 10° NNE
BREEZE M DEB (TANK) 3.3 02:27:12 10° SW 02:30:27 75° NW 02:40:58 10° NE
Cosmos 2058 3.7 02:33:45 32° E 02:33:45 32° E 02:37:13 10° NNE
BREEZE-M R/B 4.5 02:24:36 10° NW 02:36:08 67° NE 02:39:02 31° ESE
Cosmos 2074 Rocket 4.0 02:34:54 26° SSE 02:38:27 59° E 02:44:31 10° NNE
Cosmos 1315 Rocket 2.7 02:36:59 10° N 02:41:08 80° E 02:42:08 50° SSE
Cosmos 1980 4.5 02:41:58 10° SW 02:47:26 52° WNW 02:52:56 10° N
Cosmos 44 3.5 02:43:51 10° SW 02:48:05 60° WNW 02:52:24 10° NNE
Cosmos 1680 Rocket 3.7 02:44:02 10° SSW 02:49:19 72° WNW 02:54:39 10° NNE
ISS -3.2 02:46:15 10° SW 02:49:33 58° NW 02:52:52 10° NE
Cosmos 1892 2.8 02:56:31 59° NE 02:56:31 59° NE 02:59:48 10° NNE
Atlas Centaur 2 3.5 02:52:46 10° WSW 02:56:35 22° SSW 02:56:41 22° SSW
Geosat 4.0 02:55:59 51° SE 02:57:07 68° ENE 03:02:06 10° NNW
Cosmos 2181 Rocket 4.1 02:52:23 10° N 02:58:36 72° W 03:01:54 29° S
Cosmos 2327 Rocket 4.5 02:57:32 43° SE 02:59:13 58° E 03:05:12 10° NNE
Cosmos 2237 Rocket 3.5 02:58:22 10° SW 03:03:41 40° WNW 03:09:01 10° N
Meteor 2-17 Rocket 4.3 03:02:52 37° S 03:05:25 85° E 03:11:29 10° N
Gblst 52 Del rocket 4.3 03:01:53 10° NW 03:07:39 90° SW 03:09:13 53° SE
ATLAS CENTAUR R/B 3.2 03:05:23 10° WNW 03:08:00 19° WSW 03:08:23 19° WSW
Landsat 7 3.7 03:07:35 69° SSE 03:08:10 89° E 03:12:57 10° NNW
Resurs 01 Rocket 3.2 03:08:50 22° SW 03:10:38 30° W 03:14:32 10° NW
NOSS 3-4 (A) 4.1 03:06:28 10° NNW 03:13:40 62° ENE 03:16:05 44° ESE
NOSS 3-4 (C) 4.1 03:06:35 10° NNW 03:13:47 61° ENE 03:16:12 44° ESE
ERS-1 Rocket 3.1 03:16:29 55° ENE 03:16:29 55° ENE 03:21:24 10° N
Cosmos 1943 Rocket 4.4 03:15:35 10° NNE 03:17:42 12° NE 03:18:23 12° ENE
Cosmos 1610 Rocket 4.4 03:20:17 50° S 03:22:05 87° E 03:28:29 10° N
Cosmos 1825 4.1 03:26:00 23° NNE 03:26:00 23° NNE 03:27:36 10° NNE
Cosmos 1842 Rocket 4.1 03:19:56 10° NNW 03:24:07 50° W 03:24:16 50° W
Cosmos 2344 4.0 03:17:34 10° SW 03:25:12 60° WNW 03:32:43 10° NNE
Hubble Space Telescope 2.7 03:21:50 10° W 03:23:26 21° WSW 03:23:26 21° WSW
SPOT 1/Viking Rocket 3.5 03:26:27 70° SSW 03:26:53 75° WSW 03:32:04 10° NNW
Centaur D-1AR AC-40 4.4 03:07:23 10° WSW 03:27:23 29° S 03:27:23 29° S
Mugunghwa Rocket 4.2 03:22:31 10° WSW 03:28:22 53° S 03:28:22 53° S
Cosmos 1408 4.3 03:30:37 30° N 03:30:37 30° N 03:32:32 10° N
COSMOS 2455 4.5 03:28:09 10° N 03:32:34 21° NE 03:33:19 20° ENE
Cosmos 1624 Rocket 4.3 03:28:58 10° N 03:33:35 55° NE 03:33:35 55° NE
BREEZE-M DEB (TANK) 4.2 03:30:52 10° NW 03:34:52 23° NNE 03:34:52 23° NNE
SEDSat Delta rocket 3.6 03:29:48 10° W 03:35:32 86° S 03:35:53 80° ESE
Cosmos 2221 3.4 03:31:36 10° NNW 03:35:30 43° W 03:35:30 43° W
CARTOSAT-1 4.2 03:38:11 53° NNW 03:38:11 53° NNW 03:41:31 10° NNW
ATLAS 2AS CENTAUR R/B 2.5 03:33:39 10° NNW 03:41:01 85° ENE 03:41:54 70° SE
SPOT 5 3.1 03:41:54 66° N 03:41:54 66° N 03:45:55 10° NNW
Cosmos 2151 4.3 03:43:45 34° NNE 03:43:45 34° NNE 03:46:13 10° N
USA 215 3.1 03:38:06 10° NE 03:44:40 81° SE 03:46:24 53° SSW
Cosmos 2278 Rocket 3.1 03:43:11 10° NW 03:48:21 37° WSW 03:48:54 36° WSW
SL-16 R/B 3.2 03:51:42 28° WSW 03:54:11 43° WNW 03:59:36 10° N
Terra 2.5 03:56:54 50° N 03:56:54 50° N 04:00:27 10° NNW
Cosmos 2297 4.1 03:54:20 10° NNW 03:59:13 58° NNE 03:59:13 58° NNE
Cosmos 2218 Rocket 4.3 04:09:50 56° NE 04:09:50 56° NE 04:15:00 10° NNE
SL-8 Rocket 4.3 04:32:32 60° NW 04:32:32 60° NW 04:37:56 10° N
Cosmos 2369 Rocket 3.5 04:29:20 10° N 04:33:06 32° NNE 04:33:06 32° NNE
Lacrosse 5 rocket 4.2 04:37:28 10° NNW 04:38:15 14° N 04:38:15 14° N
Cosmos 1943 Rocket 3.4 04:56:24 10° NNW 04:59:53 39° NNW 04:59:53 39° NNW
Lacrosse 5 4.2 05:08:05 18° NNE 05:08:05 18° NNE 05:09:26 10° NE
COSMOS 2455 4.1 05:12:56 10° NW 05:16:26 34° NW 05:16:26 34° NW
CZ-4C R/B 3.2 05:35:21 10° NNW 05:41:59 70° NW 05:41:59 70° NW
USA 267 4.0 05:54:08 45° NE 05:54:29 46° NE 06:00:39 10° NNW
Resurs 1-4 Rocket 4.0 06:32:56 10° NE 06:35:35 23° ENE 06:35:35 23° ENE
Cosmos 2173 Rocket 4.4 06:56:53 59° NNE 06:56:53 59° NNE 07:02:00 10° N
Cosmos 2016 Rocket 4.5 07:07:36 54° ENE 07:07:36 54° ENE 07:12:49 10° NNE
SL-16 R/B 3.1 07:12:18 50° E 07:12:37 51° ENE 07:18:38 10° N
SeaSat 1 3.5 07:20:48 10° NNE 07:24:07 43° NNE 07:24:07 43° NNE
Cosmos 2082 Rocket 2.9 07:28:05 48° ENE 07:28:05 48° ENE 07:32:45 10° NNE
CZ-4B R/B 4.5 07:25:24 10° NNE 07:28:58 42° NE 07:28:58 42° NE
Cosmos 1833 Rocket 3.2 07:31:40 56° N 07:31:40 56° N 07:36:07 10° NNE
Cosmos 1140 Rocket 4.4 07:32:14 45° N 07:32:14 45° N 07:35:54 10° N
Aureole 1 Rocket 4.5 07:33:50 40° NNE 07:33:50 40° NNE 07:37:22 10° NNE
CZ-2D R/B 2.7 07:30:14 10° N 07:34:24 53° N 07:34:24 53° N
COSMOS 2406 4.1 07:37:53 41° NW 07:37:53 41° NW 07:42:28 10° N
Cosmos 1656 3.9 07:37:13 10° NNW 07:41:58 62° NNE 07:41:58 62° NNE
Cosmos 2233 Rocket 3.9 07:53:28 71° SE 07:53:55 74° E 08:00:08 10° N
Cosmos 2346 Rocket 4.3 07:49:57 10° N 07:55:55 80° WNW 07:55:55 80° WNW
Cosmos 1733 Rocket 4.1 07:57:57 44° NNE 07:57:57 44° NNE 08:00:59 10° N
Cosmos 676 Rocket 4.4 07:57:50 55° NNW 07:57:50 55° NNW 08:02:13 10° N
ARIANE 5 R/B 3.4 07:59:03 10° NNE 08:03:50 40° E 08:04:30 38° ESE
IRS-1C 4.3 08:02:20 10° NNE 08:07:38 62° ESE 08:08:02 60° SE
Meteor 1-13 Rocket 4.1 08:02:13 10° N 08:07:55 84° E 08:08:17 78° SE
ADEOS II 1.9 08:07:05 10° NNE 08:12:21 86° WNW 08:12:21 86° WNW
ATLAS 2A CENTAUR R/B 3.6 08:15:30 39° SSE 08:15:30 39° SSE 08:18:29 10° ESE
Centaur AC-72 4.0 08:18:11 28° SSE 08:18:11 28° SSE 08:22:04 10° ESE
Resurs 1-4 Rocket 3.4 08:12:49 10° NNW 08:16:39 26° WNW 08:16:39 26° WNW
USA 238 DEB 4.2 08:20:44 37° SSE 08:22:45 49° ESE 08:29:11 10° NE
USA 238 4.2 08:20:49 37° SSE 08:22:51 48° ESE 08:29:16 10° NE
Cosmos 1536 4.2 08:25:47 30° NNW 08:25:47 30° NNW 08:28:12 10° N
CENTAUR R/B 3.8 08:29:59 19° SSE 08:32:30 27° ESE 08:37:34 10° NE
ATLAS 5 CENTAUR R/B 4.0 08:27:26 10° N 08:32:57 35° NE 08:39:05 10° ESE
Cosmos 1975 4.3 08:33:09 26° ESE 08:34:15 31° E 08:37:46 10° NNE
SL-27 R/B 3.9 08:35:04 31° ESE 08:35:05 31° E 08:38:12 10° NE
Cosmos 1241 Rocket 4.5 08:29:49 10° NNW 08:36:13 65° WSW 08:38:44 38° S
Cosmos 2369 3.6 08:34:13 10° NNW 08:39:56 76° WSW 08:42:09 39° S
Cosmos 1980 Rocket 2.7 08:34:26 10° NNW 08:40:04 59° ENE 08:45:38 10° SSE
CZ-2C R/B 4.1 08:38:52 10° NNE 08:42:37 36° E 08:43:53 29° SE
Tsikada Rocket 4.4 08:37:16 10° NNW 08:43:18 45° W 08:44:16 42° WSW
Cosmos 921 Rocket 2.8 08:39:43 10° NNW 08:44:02 75° W 08:44:02 75° W
IRS-P3 4.4 08:41:07 10° N 08:46:14 49° WNW 08:47:05 44° WSW
Meteor 2-11 Rocket 4.4 08:44:46 46° SW 08:46:23 63° W 08:52:23 10° N
IDEFIX/ARIANE 42P 2.8 08:42:21 10° NNE 08:47:30 64° E 08:49:47 33° S
ERS-2 4.5 08:46:08 10° SE 08:49:04 23° ENE 08:52:00 10° NNE
Meteor 1-28 Rocket 3.1 08:51:07 64° SE 08:51:37 78° ENE 08:55:19 10° N
Cosmos 1867 3.7 08:50:00 41° S 08:51:51 70° ESE 08:57:16 10° NNE
Cosmos 1378 Rocket 3.4 08:50:49 10° N 08:55:15 83° W 08:56:31 46° S
SL-16 R/B 4.0 08:57:24 19° W 08:57:24 19° W 09:00:49 10° NW
ERBS 2.3 08:59:02 71° ESE 08:59:02 71° ESE 09:02:13 10° NE
Cosmos 2278 3.6 08:54:33 10° NNW 09:00:17 77° WSW 09:05:57 10° SSE
Cosmos 1464 Rocket 4.0 08:58:16 28° S 09:01:52 84° W 09:08:16 10° N
COBE Rocket 4.4 09:01:51 39° WSW 09:02:16 40° W 09:06:54 10° NNW
CZ-2C R/B 4.3 08:58:57 10° NE 09:02:43 24° E 09:06:23 10° SSE
MSX 4.1 08:57:51 10° NNE 09:03:33 63° ESE 09:07:45 18° S
Okean 2 4.3 09:02:44 10° N 09:06:41 47° E 09:10:36 10° SSE
SL-19 R/B 3.7 09:04:41 10° NNE 09:07:46 87° ESE 09:08:15 63° S
Cosmos 1697 Rocket 3.2 09:02:47 10° NW 09:07:52 36° WSW 09:08:43 34° WSW
Sakura Rocket 4.5 09:06:07 27° WSW 09:10:21 72° S 09:19:47 10° E
ATLAS 2A CENTAUR R/B 2.8 09:11:06 15° SE 09:11:06 15° SE 09:13:03 10° ESE
Cosmos 1271 Rocket 3.4 09:07:20 10° N 09:11:00 50° E 09:14:35 10° SSE
Cosmos 2082 Rocket 3.9 09:09:56 16° W 09:11:34 18° WNW 09:15:24 10° NNW
Cosmos 1263 4.1 09:08:47 10° NNW 09:11:48 67° W 09:12:02 64° SW
Cosmos 2034 Rocket 4.0 09:08:09 18° S 09:12:50 84° E 09:19:01 10° N
Cosmos 1763 Rocket 3.5 09:09:11 10° NNW 09:14:29 83° ENE 09:19:47 10° SSE
CZ-2D R/B 3.9 09:10:27 10° N 09:14:35 46° WNW 09:15:43 37° WSW
Cosmos 1544 3.2 09:17:21 44° WSW 09:17:51 48° W 09:21:20 10° N
Cosmos 1674 Rocket 4.4 09:16:35 10° NNW 09:20:17 28° W 09:20:31 28° W
ATLAS 3B R/B 4.3 09:15:46 10° SSE 09:21:13 27° ESE 09:26:37 10° NE
NOSS 3-2 (C) 3.2 09:18:36 26° SSW 09:21:53 84° ESE 09:27:58 10° NNE
ISS -0.5 09:19:54 10° N 09:22:07 16° NE 09:24:19 10° ENE
Cosmos 1743 4.2 09:22:56 21° WNW 09:22:56 21° WNW 09:25:50 10° NNW
Cosmos 1782 Rocket 3.7 09:21:46 30° SSW 09:23:44 57° W 09:28:06 10° N
ATLAS 2A CENTAUR R/B 3.4 09:14:37 10° W 09:25:52 51° SSW 09:29:09 10° ESE
Cosmos 468 Rocket 4.0 09:20:55 10° NNW 09:26:10 63° WSW 09:31:23 10° S
NOSS 3-2 (A) 3.8 09:31:00 22° WSW 09:34:12 44° NW 09:40:04 10° NNE
Landsat 5 3.2 09:31:40 10° S 09:35:38 84° W 09:39:30 10° NNW
COSMOS 2441 4.3 09:32:26 10° N 09:37:12 67° WNW 09:40:56 16° SSW
SL-08 R/B 4.4 09:37:11 22° WSW 09:38:25 24° W 09:42:18 10° NW
COSMOS 2487 4.0 09:36:01 10° SSE 09:39:07 33° ESE 09:42:15 10° NE
Meteor 2-9 Rocket 4.3 09:36:47 19° SSW 09:40:30 52° W 09:45:42 10° N
Cosmos 540 Rocket 3.8 09:36:19 10° NNW 09:41:27 70° ENE 09:46:35 10° SSE
Cosmos 1242 Rocket 3.7 09:38:57 10° NW 09:41:45 23° W 09:42:13 22° WSW
Cosmos 841 Rocket 3.7 09:37:09 10° NNW 09:42:20 77° ENE 09:47:32 10° SSE
ARIANE 5 R/B 4.1 09:39:02 10° NNW 09:42:36 19° WNW 09:44:49 15° W
Cosmos 2322 Rocket 3.4 09:38:31 10° N 09:43:57 46° ENE 09:49:21 10° SE
Meteor 1-12 Rocket 4.4 09:40:18 10° S 09:45:57 76° E 09:51:43 10° N
Sich 1 Rocket 3.9 09:45:04 16° SSW 09:48:30 49° W 09:52:53 10° N
Cosmos 1818 3.5 09:48:12 10° NNW 09:53:37 69° WSW 09:58:59 10° SSE
CZ-4B R/B 2.6 09:53:35 10° SSE 09:56:54 46° ENE 10:00:15 10° N
Intercosmos 25 Rocket 4.5 09:55:22 10° NNW 10:00:01 60° W 10:07:42 10° S
deb Chang Zheng 4 3.5 09:55:57 10° N 10:00:12 71° WNW 10:04:29 10° SSW
Cosmos 1833 4.2 09:54:49 10° SSW 10:00:27 86° ESE 10:06:06 10° NNE
Cosmos 1092 Rocket 4.1 09:57:02 10° N 10:03:23 86° E 10:09:40 10° S
Cosmos 1484 Rocket 4.2 10:02:18 10° NNE 10:05:53 38° E 10:09:24 10° SSE
H-2A R/B 3.1 10:06:38 10° SSW 10:10:21 26° W 10:14:01 10° NW
CZ-4C R/B 4.4 10:09:19 11° SW 10:11:28 18° W 10:13:44 10° NW
Cosmos 1975 Rocket 3.9 10:07:55 10° NNW 10:11:52 32° W 10:15:50 10° SSW
Cosmos 1486 Rocket 4.1 10:10:20 10° SSW 10:15:33 61° WNW 10:20:46 10° N
Cosmos 2360 Rocket 3.6 10:10:33 10° N 10:15:57 44° ENE 10:21:19 10° SE
Nadezhda 4 Rocket 4.5 10:10:44 10° NNW 10:16:37 42° W 10:22:30 10° SSW
PSLV R/B 4.4 10:12:56 10° N 10:16:49 33° WNW 10:20:43 10° SW
ATLAS 5 CENTAUR R/B 3.1 10:11:56 10° NW 10:17:40 37° WSW 10:23:58 10° S
Okean 2 Rocket 3.9 10:17:09 10° SW 10:21:05 32° W 10:25:03 10° NNW
ERS-2 3.8 10:20:23 10° SW 10:22:33 15° W 10:24:43 10° WNW
CENTAUR R/B 3.2 10:17:29 10° WSW 10:22:44 37° NW 10:28:49 10° NNE
Cosmos 1980 Rocket 3.8 10:20:37 10° WNW 10:23:26 14° W 10:26:15 10° SW
CZ-3B R/B 2.8 10:15:14 10° WSW 10:24:32 44° S 10:27:52 10° ESE
Gbstr 26 Del rocket 3.7 10:20:26 10° NW 10:25:13 53° SW 10:31:09 10° SSE
CZ-4B R/B 4.0 10:21:36 10° NNE 10:25:40 77° ESE 10:29:30 10° S
